Weather History for Bishop, CA

Change the Weather History Date:

Sunday, January 5, 2014

  Actual Average Record
Temperature  
Mean Temperature 43 °F 38 °F  
Max Temperature 63 °F 53 °F 73 °F (1984)
Min Temperature 23 °F 22 °F 1 °F (1955)
Degree Days  
Heating Degree Days 22 27  
Month to date heating degree days 109 137  
Since 1 July heating degree days 1917 1884  
Cooling Degree Days 0 0  
Month to date cooling degree days 0 0  
Year to date cooling degree days 0 0  
Moisture  
Dew Point -6 °F    
Average Humidity 16    
Maximum Humidity 26    
Minimum Humidity 6    
Precipitation  
Precipitation 0.00 in 0.05 in 0.85 in (1982)
Month to date precipitation 0.00 0.22  
Year to date precipitation 0.00 0.22  
Snow  
Snow 0.00 in 0.10 in 9.10 in (1982)
Month to date snowfall 0.0 0.5  
Since 1 July snowfall 0.5 2.2  
Snow Depth 0.00 in    
Sea Level Pressure  
Sea Level Pressure 30.25 in    
Wind  
Wind Speed 9 mph (NW)    
Max Wind Speed 21 mph    
Max Gust Speed 28 mph    
Visibility 10 miles    
Events      
T = Trace of Precipitation, MM = Missing Value Source: NWS Daily Summary

Daily Weather History Graph

Daily Weather History Graph

Search for Another Location

Airport:

Trip Planner

Search our weather history database for the weather conditions in past years. The results will help you decide how hot, cold, wet, or windy it might be!

Date:

Astronomy

Jan. 05, 2014 Rise Set
Actual Time 7:08 AM PST 4:49 PM PST
Civil Twilight 6:39 AM PST 5:18 PM PST
Nautical Twilight 6:06 AM PST 5:51 PM PST
Astronomical Twilight 5:35 AM PST 6:23 PM PST
Moon 9:59 AM PST (1/5) 10:15 PM PST (1/5)
Length of Visible Light 10h 39m
Length of Day
9h 41m
Waxing Crescent, 25% of the Moon is Illuminated
Jan 5
Waxing Crescent
Jan 7
First Quarter
Jan 15
Full
Jan 23
Last Quarter
Jan 30
New

Hourly Weather History & Observations

Time (PST) Temp. Windchill Dew Point Humidity Pressure Visibility Wind Dir Wind Speed Gust Speed Precip Events Conditions
12:56 AM 37.0 °F 29.8 °F -5.1 °F 17% 30.17 in 10.0 mi WNW 10.4 mph - N/A   Clear
1:56 AM 34.0 °F 26.0 °F -4.0 °F 20% 30.19 in 10.0 mi WNW 10.4 mph - N/A   Clear
2:56 AM 37.0 °F 31.6 °F -6.0 °F 16% 30.19 in 10.0 mi NW 6.9 mph - N/A   Clear
3:56 AM 37.0 °F 28.9 °F -4.0 °F 17% 30.20 in 10.0 mi NW 12.7 mph - N/A   Clear
4:56 AM 41.0 °F 33.1 °F -9.0 °F 12% 30.22 in 10.0 mi North 15.0 mph - N/A   Clear
5:56 AM 37.9 °F 31.5 °F -9.9 °F 13% 30.25 in 10.0 mi WNW 9.2 mph - N/A   Clear
6:56 AM 36.0 °F 28.0 °F -8.0 °F 15% 30.29 in 10.0 mi NW 11.5 mph - N/A   Clear
7:56 AM 41.0 °F 32.8 °F -8.0 °F 12% 30.32 in 10.0 mi NNW 16.1 mph 25.3 mph N/A   Clear
8:56 AM 45.0 °F 38.9 °F -5.1 °F 12% 30.33 in 10.0 mi NW 12.7 mph - N/A   Clear
9:56 AM 51.1 °F - -9.0 °F 8% 30.32 in 10.0 mi NNW 16.1 mph - N/A   Clear
10:56 AM 54.0 °F - -5.1 °F 9% 30.31 in 10.0 mi WNW 10.4 mph - N/A   Clear
11:56 AM 57.0 °F - -5.1 °F 8% 30.25 in 10.0 mi WNW 6.9 mph - N/A   Clear
12:56 PM 60.1 °F - -8.0 °F 6% 30.21 in 10.0 mi WNW 8.1 mph - N/A   Clear
1:56 PM 61.0 °F - -9.0 °F 6% 30.19 in 10.0 mi West 5.8 mph - N/A   Clear
2:56 PM 62.1 °F - -8.0 °F 6% 30.17 in 10.0 mi West 6.9 mph - N/A   Clear
3:56 PM 61.0 °F - -8.0 °F 6% 30.18 in 10.0 mi WSW 4.6 mph - N/A   Clear
4:56 PM 50.0 °F - -8.0 °F 9% 30.20 in 10.0 mi NW 6.9 mph - N/A   Clear
5:56 PM 46.0 °F 41.4 °F -4.0 °F 12% 30.24 in 10.0 mi WNW 9.2 mph - N/A   Clear
6:56 PM 42.1 °F 36.6 °F -2.0 °F 16% 30.28 in 10.0 mi West 9.2 mph - N/A   Clear
7:56 PM 37.9 °F 32.7 °F -2.9 °F 18% 30.29 in 10.0 mi NNW 6.9 mph - N/A   Clear
8:56 PM 37.0 °F 31.6 °F -2.0 °F 19% 30.30 in 10.0 mi NW 6.9 mph - N/A   Clear
9:56 PM 30.0 °F 25.2 °F -2.9 °F 24% 30.32 in 10.0 mi NW 4.6 mph - N/A   Clear
10:56 PM 26.1 °F - -4.0 °F 27% 30.32 in 10.0 mi Calm Calm - N/A   Clear
11:56 PM 25.0 °F 19.3 °F -2.9 °F 30% 30.32 in 10.0 mi North 4.6 mph - N/A   Clear